La Junta, CO

10:31 AM MDT on September 22, 2017 (GMT -0600)
La Junta Municipal

Weather History for KLHX - August, 2014

Change the Weather History Date:

Sunday, August 24, 2014

  Actual Average Record
Temperature  
Mean Temperature 74 °F 75 °F  
Max Temperature 91 °F 90 °F 103 °F (2011)
Min Temperature 57 °F 60 °F 50 °F (1966)
Degree Days  
Heating Degree Days 0 0  
Month to date heating degree days 0 0  
Since 1 June heating degree days 5 17  
Since 1 July heating degree days 0 1  
Cooling Degree Days 9 10  
Month to date cooling degree days 287 282  
Year to date cooling degree days 1126 1013  
Since 1 June cooling degree days 1004 940  
Growing Degree Days 24 (Base 50)    
Moisture  
Dew Point 51 °F    
Average Humidity 52    
Maximum Humidity 80    
Minimum Humidity 23    
Precipitation  
Precipitation 0.00 in 0.05 in 0.87 in (1998)
Month to date precipitation 2.12 1.31  
Year to date precipitation 10.65  
Sea Level Pressure  
Sea Level Pressure 29.81 in    
Wind  
Wind Speed 8 mph (SE)    
Max Wind Speed 17 mph    
Max Gust Speed 23 mph    
Visibility 10 miles    
Events      
T = Trace of Precipitation, MM = Missing Value Source: NWS Daily Summary

Daily Weather History Graph

Daily Weather History Graph

Search for Another Location

Airport or City:

Trip Planner

Search our weather history database for the weather conditions in past years. The results will help you decide how hot, cold, wet, or windy it might be!

Date:

Astronomy

Aug. 24, 2014 Rise Set
Actual Time 6:16 AM MDT 7:35 PM MDT
Civil Twilight 5:49 AM MDT 8:02 PM MDT
Nautical Twilight 5:16 AM MDT 8:35 PM MDT
Astronomical Twilight 4:42 AM MDT 9:09 PM MDT
Moon 5:29 AM MDT (8/24) 6:55 PM MDT (8/24)
Length of Visible Light 14h 12m
Length of Day
13h 18m
Waning Crescent, 1% of the Moon is Illuminated
Aug 24
Waning Crescent
Aug 25
New
Sep 2
First Quarter
Sep 8
Full
Sep 15
Last Quarter

Hourly Weather History & Observations

Time (MDT) Temp. Dew Point Humidity Pressure Visibility Wind Dir Wind Speed Gust Speed Precip Events Conditions
12:53 AM 68.0 °F 54.0 °F 61% 29.76 in 10.0 mi Calm Calm - N/A   Clear
1:53 AM 63.0 °F 55.0 °F 75% 29.79 in 10.0 mi WSW 8.1 mph - N/A   Clear
2:53 AM 63.0 °F 54.0 °F 72% 29.80 in 10.0 mi West 3.5 mph - N/A   Clear
3:53 AM 59.0 °F 54.0 °F 83% 29.81 in 10.0 mi WNW 6.9 mph - N/A   Clear
4:53 AM 59.0 °F 53.1 °F 81% 29.81 in 10.0 mi WNW 3.5 mph - N/A   Clear
5:53 AM 59.0 °F 53.1 °F 81% 29.84 in 10.0 mi West 3.5 mph - N/A   Clear
6:53 AM 59.0 °F 54.0 °F 83% 29.86 in 10.0 mi WSW 4.6 mph - N/A   Clear
7:53 AM 66.0 °F 55.0 °F 68% 29.88 in 10.0 mi WNW 5.8 mph - N/A   Clear
8:53 AM 70.0 °F 53.1 °F 55% 29.89 in 10.0 mi Calm Calm - N/A   Clear
9:53 AM 73.0 °F 50.0 °F 44% 29.90 in 10.0 mi SE 6.9 mph - N/A   Clear
10:53 AM 77.0 °F 50.0 °F 39% 29.90 in 10.0 mi SSE 5.8 mph - N/A   Clear
11:53 AM 79.0 °F 50.0 °F 36% 29.87 in 10.0 mi SE 8.1 mph - N/A   Clear
12:53 PM 82.9 °F 48.9 °F 31% 29.84 in 10.0 mi ESE 8.1 mph - N/A   Clear
1:53 PM 86.0 °F 48.9 °F 28% 29.82 in 10.0 mi Variable 4.6 mph - N/A   Clear
2:53 PM 88.0 °F 46.0 °F 23% 29.78 in 10.0 mi SSW 4.6 mph - N/A   Clear
3:53 PM 90.0 °F 46.0 °F 22% 29.77 in 10.0 mi East 9.2 mph 17.3 mph N/A   Clear
4:53 PM 90.0 °F 46.9 °F 23% 29.75 in 10.0 mi East 16.1 mph 23.0 mph N/A   Clear
5:53 PM 90.0 °F 46.9 °F 23% 29.74 in 10.0 mi ENE 16.1 mph - N/A   Clear
6:53 PM 86.0 °F 48.0 °F 27% 29.74 in 10.0 mi East 15.0 mph - N/A   Clear
8:53 PM 75.9 °F 50.0 °F 40% 29.77 in 10.0 mi East 10.4 mph - N/A   Clear
9:53 PM 73.9 °F 48.9 °F 41% 29.78 in 10.0 mi East 10.4 mph - N/A   Clear
11:53 PM 70.0 °F 48.9 °F 47% 29.78 in 10.0 mi East 10.4 mph - N/A   Clear